ATLAS CENTAUR 2

Last updated on Wed Sep 17 2025 00:02:14 GMT+0000 (Coordinated Universal Time)

1 00694U 63047A 25259.22899967 .00001293 00000+0 14720-3 0 9995 2 00694 30.3553 89.9656 0551903 343.7863 14.5703 14.11043694106954
UTC large
Height (km)
Speed (km/s)
/
Latitude / Longitude
Inclination (degrees)
Orbital Period (minutes)
Azimuth
Elevation
Range (km)
Doppler Factor

Next 0 passes for location: London (51.5072 / 0.1276)

Sorry there are no passes over London.